Stündliche Wetter Juárez

Heute, 1 März, Montag

Zeit Temperatur Niederschläge Wind Luftdruck Luftfeuchtigkeit
00:00 +24°C° 0 mm 2 m/S 724 mmHg 66%
01:00 +24°C° 0 mm 2 m/S 724 mmHg 64%
02:00 +24°C° 0 mm 2 m/S 724 mmHg 62%
03:00 +24°C° 0 mm 2 m/S 724 mmHg 62%
04:00 +23°C° 0 mm 2 m/S 724 mmHg 62%
05:00 +23°C° 0 mm 2 m/S 725 mmHg 62%
06:00 +24°C° 0 mm 2 m/S 725 mmHg 58%
07:00 +25°C° 0 mm 2 m/S 726 mmHg 55%
08:00 +27°C° 0 mm 2 m/S 726 mmHg 52%
09:00 +28°C° 0 mm 2 m/S 727 mmHg 49%
10:00 +30°C° 0 mm 3 m/S 727 mmHg 46%
11:00 +32°C° 0 mm 4 m/S 728 mmHg 43%
12:00 +29°C° 0.2 mm 4 m/S 727 mmHg 49%
13:00 +27°C° 0.2 mm 5 m/S 727 mmHg 54%
14:00 +24°C° 0.2 mm 6 m/S 726 mmHg 59%
15:00 +23°C° 0.1 mm 5 m/S 727 mmHg 59%
16:00 +21°C° 0.1 mm 5 m/S 727 mmHg 58%
17:00 +20°C° 0.1 mm 5 m/S 728 mmHg 57%
18:00 +20°C° 0 mm 5 m/S 729 mmHg 53%
19:00 +19°C° 0 mm 5 m/S 730 mmHg 48%
20:00 +19°C° 0 mm 5 m/S 731 mmHg 43%
21:00 +17°C° 0 mm 5 m/S 731 mmHg 41%
22:00 +17°C° 0 mm 5 m/S 732 mmHg 39%
23:00 +16°C° 0 mm 5 m/S 732 mmHg 37%

Morgen, 2 März, Dienstag

Zeit Temperatur Niederschläge Wind Luftdruck Luftfeuchtigkeit
00:00 +15°C° 0 mm 4 m/S 732 mmHg 38%
01:00 +14°C° 0 mm 4 m/S 732 mmHg 39%
02:00 +13°C° 0 mm 4 m/S 732 mmHg 40%
03:00 +13°C° 0 mm 4 m/S 732 mmHg 42%
04:00 +12°C° 0 mm 4 m/S 732 mmHg 43%
05:00 +11°C° 0 mm 4 m/S 732 mmHg 45%
06:00 +12°C° 0 mm 4 m/S 732 mmHg 42%
07:00 +13°C° 0 mm 4 m/S 732 mmHg 39%
08:00 +14°C° 0 mm 4 m/S 733 mmHg 36%
09:00 +17°C° 0 mm 4 m/S 732 mmHg 33%
10:00 +18°C° 0 mm 4 m/S 732 mmHg 30%
11:00 +20°C° 0 mm 4 m/S 732 mmHg 27%
12:00 +21°C° 0 mm 3 m/S 731 mmHg 27%
13:00 +21°C° 0 mm 3 m/S 730 mmHg 26%
14:00 +22°C° 0 mm 3 m/S 729 mmHg 26%
15:00 +21°C° 0 mm 3 m/S 729 mmHg 29%
16:00 +20°C° 0 mm 3 m/S 728 mmHg 32%
17:00 +19°C° 0 mm 4 m/S 728 mmHg 35%
18:00 +17°C° 0 mm 3 m/S 728 mmHg 39%
19:00 +15°C° 0 mm 2 m/S 729 mmHg 42%
20:00 +14°C° 0 mm 2 m/S 729 mmHg 46%
21:00 +14°C° 0 mm 2 m/S 729 mmHg 47%
22:00 +13°C° 0 mm 1 m/S 729 mmHg 48%
23:00 +13°C° 0 mm 1 m/S 729 mmHg 49%

übermorgen, 3 März, Mittwoch

Zeit Temperatur Niederschläge Wind Luftdruck Luftfeuchtigkeit
00:00 +12°C° 0 mm 1 m/S 729 mmHg 51%
01:00 +12°C° 0 mm 1 m/S 729 mmHg 53%
02:00 +10°C° 0 mm 0 m/S 728 mmHg 55%
03:00 +10°C° 0 mm 0 m/S 728 mmHg 55%
04:00 +10°C° 0 mm 0 m/S 728 mmHg 56%
05:00 +10°C° 0 mm 0 m/S 728 mmHg 57%
06:00 +11°C° 0 mm 0 m/S 729 mmHg 51%
07:00 +14°C° 0 mm 1 m/S 729 mmHg 45%
08:00 +16°C° 0 mm 1 m/S 730 mmHg 39%
09:00 +19°C° 0 mm 1 m/S 730 mmHg 35%
10:00 +20°C° 0 mm 2 m/S 730 mmHg 32%
11:00 +23°C° 0 mm 2 m/S 729 mmHg 29%
12:00 +24°C° 0 mm 2 m/S 729 mmHg 28%
13:00 +25°C° 0 mm 3 m/S 728 mmHg 27%
14:00 +26°C° 0 mm 3 m/S 728 mmHg 26%
15:00 +26°C° 0 mm 3 m/S 728 mmHg 27%
16:00 +25°C° 0 mm 3 m/S 728 mmHg 29%
17:00 +25°C° 0 mm 4 m/S 728 mmHg 31%
18:00 +22°C° 0 mm 3 m/S 728 mmHg 36%
19:00 +20°C° 0 mm 2 m/S 729 mmHg 41%
20:00 +18°C° 0 mm 2 m/S 730 mmHg 46%
21:00 +17°C° 0 mm 2 m/S 730 mmHg 49%
22:00 +17°C° 0 mm 2 m/S 730 mmHg 52%
23:00 +16°C° 0 mm 2 m/S 729 mmHg 55%

4 März, Donnerstag

Zeit Temperatur Niederschläge Wind Luftdruck Luftfeuchtigkeit
00:00 +15°C° 0 mm 1 m/S 729 mmHg 61%
01:00 +14°C° 0 mm 1 m/S 729 mmHg 67%
02:00 +14°C° 0 mm 1 m/S 729 mmHg 73%
03:00 +13°C° 0 mm 1 m/S 729 mmHg 74%
04:00 +13°C° 0 mm 1 m/S 729 mmHg 75%
05:00 +13°C° 0 mm 1 m/S 729 mmHg 76%
06:00 +15°C° 0 mm 1 m/S 729 mmHg 70%
07:00 +16°C° 0 mm 1 m/S 730 mmHg 65%
08:00 +19°C° 0 mm 1 m/S 731 mmHg 59%
09:00 +21°C° 0 mm 1 m/S 730 mmHg 52%
10:00 +23°C° 0 mm 2 m/S 730 mmHg 45%
11:00 +25°C° 0 mm 2 m/S 730 mmHg 38%
12:00 +27°C° 0 mm 3 m/S 729 mmHg 35%
13:00 +28°C° 0 mm 3 m/S 728 mmHg 32%
14:00 +30°C° 0 mm 4 m/S 727 mmHg 29%
15:00 +29°C° 0 mm 4 m/S 727 mmHg 30%
16:00 +28°C° 0 mm 5 m/S 727 mmHg 31%
17:00 +28°C° 0 mm 5 m/S 727 mmHg 33%
18:00 +25°C° 0 mm 4 m/S 727 mmHg 41%
19:00 +22°C° 0 mm 4 m/S 727 mmHg 49%
20:00 +20°C° 0 mm 4 m/S 727 mmHg 57%
21:00 +19°C° 0 mm 3 m/S 727 mmHg 64%
22:00 +18°C° 0 mm 2 m/S 726 mmHg 71%
23:00 +17°C° 0 mm 2 m/S 726 mmHg 78%

5 März, Freitag

Zeit Temperatur Niederschläge Wind Luftdruck Luftfeuchtigkeit
00:00 +17°C° 0 mm 2 m/S 726 mmHg 80%
01:00 +16°C° 0 mm 1 m/S 725 mmHg 82%
02:00 +16°C° 0 mm 1 m/S 725 mmHg 84%
03:00 +16°C° 0 mm 1 m/S 724 mmHg 85%
04:00 +15°C° 0 mm 1 m/S 724 mmHg 85%
05:00 +15°C° 0 mm 1 m/S 724 mmHg 86%
06:00 +18°C° 0 mm 1 m/S 725 mmHg 79%
07:00 +19°C° 0 mm 1 m/S 725 mmHg 72%
08:00 +20°C° 0 mm 2 m/S 726 mmHg 66%
09:00 +24°C° 0 mm 2 m/S 726 mmHg 56%
10:00 +26°C° 0 mm 2 m/S 726 mmHg 46%
11:00 +29°C° 0 mm 3 m/S 726 mmHg 37%
12:00 +30°C° 0 mm 3 m/S 725 mmHg 35%
13:00 +30°C° 0 mm 4 m/S 725 mmHg 33%
14:00 +32°C° 0 mm 4 m/S 724 mmHg 31%
15:00 +30°C° 0 mm 4 m/S 724 mmHg 33%
16:00 +29°C° 0 mm 3 m/S 725 mmHg 35%
17:00 +28°C° 0 mm 3 m/S 725 mmHg 38%
18:00 +26°C° 0 mm 2 m/S 725 mmHg 46%
19:00 +24°C° 0 mm 2 m/S 726 mmHg 54%
20:00 +21°C° 0 mm 1 m/S 727 mmHg 62%
21:00 +21°C° 0 mm 1 m/S 727 mmHg 68%
22:00 +20°C° 0 mm 1 m/S 727 mmHg 73%
23:00 +20°C° 0 mm 1 m/S 728 mmHg 79%

6 März, Samstag

Zeit Temperatur Niederschläge Wind Luftdruck Luftfeuchtigkeit
00:00 +19°C° 0 mm 1 m/S 728 mmHg 82%
01:00 +18°C° 0 mm 1 m/S 728 mmHg 85%
02:00 +18°C° 0 mm 1 m/S 728 mmHg 87%
03:00 +18°C° 0 mm 1 m/S 728 mmHg 84%
04:00 +18°C° 0 mm 1 m/S 729 mmHg 80%
05:00 +17°C° 0 mm 2 m/S 729 mmHg 77%
06:00 +19°C° 0 mm 2 m/S 729 mmHg 65%
07:00 +20°C° 0 mm 2 m/S 730 mmHg 54%
08:00 +22°C° 0 mm 3 m/S 731 mmHg 42%
09:00 +24°C° 0 mm 3 m/S 731 mmHg 37%
10:00 +26°C° 0 mm 3 m/S 731 mmHg 31%
11:00 +27°C° 0 mm 3 m/S 731 mmHg 26%
12:00 +27°C° 0 mm 4 m/S 730 mmHg 26%
13:00 +28°C° 0 mm 4 m/S 730 mmHg 26%
14:00 +28°C° 0 mm 5 m/S 729 mmHg 26%
15:00 +27°C° 0 mm 5 m/S 729 mmHg 31%
16:00 +26°C° 0 mm 5 m/S 729 mmHg 36%
17:00 +23°C° 0 mm 4 m/S 729 mmHg 42%
18:00 +22°C° 0.1 mm 4 m/S 730 mmHg 53%
19:00 +20°C° 0.1 mm 5 m/S 730 mmHg 64%
20:00 +19°C° 0.1 mm 5 m/S 731 mmHg 76%
21:00 +17°C° 0.9 mm 5 m/S 731 mmHg 79%
22:00 +18°C° 0.9 mm 4 m/S 731 mmHg 83%
23:00 +17°C° 0.9 mm 4 m/S 731 mmHg 87%
Mehr zeigen

Wir brauchen deine Erlaubnis

Meteoprog und unser Service Anbieter werden persönliche Daten aufbewahren, so wie Cookies, Geräte Bezeichnung oder ähnliche Technologien von deinem Gerät und Prozess, so wie Persönliche Daten Inhalte und Werbungen, genauso wie social Media und den Verkehr zu analysieren.

  • Aufbewahrung und/oder Zugang zu deiner Geräte Informationen.

    Cookies, Geräte Bezeichnung oder andere Informationen, können aufbewahrt oder Zugang zu deinem Gerät erhalten, für den Grund, der oben angegeben wird.

  • Personalisierte Werbung und Inhalte, Messungen, Einblick in das Publikum und Produkt Entwicklung.

    Werbungen und Inhalte können personalisiert werden, basierend auf ein Profil. Mehr Daten können besser personalisierte Werbungen und Inhalte hinzufügen. Werbung und Inhalte können gezeigt und gemessen werden. Einblicke über das Publikum, welche die Werbung gesehen haben und den Inhalt, können abgeleitet werden. So wie Daten können genutzt werden, um es zu verbessern oder die Benutzer Erfahrung zu verbessern das System und die Software.

Wenn du “Ich stimme zu” klickst, erlaubst du uns, die Cookies zu benutzen die Geräte Bezeichnung, den Web oder ähnliche Technologien zu benutzen. Deine Settings, können in deinem Gerät bei deinem Browser geändert werden.

Für den bestimmten Zweck, berechtigten Interessen beruhen darauf, mehr als auf den Inhalt. Du kannst mehr darüber in unseren Privaten und Cookie Politik lesen.